Regional Weather Roundup
Issued by NWS

Home | Current Version | Previous Version | Text Only | Print | Product List | Glossary On
Versions: 1 2 3 4 5 6 7 8 9 10 11 12 13 14 15 16 17 18 19 20 21 22 23 24 25 26 27 28 29 30 31 32 33 34 35 36 37 38 39 40 41 42 43 44 45 46 47 48 49 50
000
ASUS44 KFWD 110915
RWRTX
NORTH TEXAS HOURLY WEATHER ROUNDUP
NATIONAL WEATHER SERVICE FORT WORTH TX
300 AM CST MON DEC 11 2017

NOTE: "FAIR" INDICATES FEW OR NO CLOUDS BELOW 12,000 FEET WITH NO
SIGNIFICANT WEATHER AND/OR OBSTRUCTIONS TO VISIBILITY.

TXZ118-119-111000-
DALLAS/FORT WORTH METROPLEX

CITY           SKY/WX    TMP DP  RH WIND       PRES   REMARKS
DFW AIRPORT    CLEAR     47  24  40 CALM      30.25F
DALLAS LOVE    CLEAR     40  30  67 CALM      30.27S
FTW MEACHAM    CLEAR     49  23  36 CALM      30.27S
DAL-EXECUTIVE  CLEAR     56  18  22 W10       30.26S
FTW-ALLIANCE   PTCLDY    47  18  31 W5        30.26S
FTW-SPINKS     CLEAR     39  23  53 CALM      30.29S
ARLINGTON      CLEAR     33  24  69 CALM      30.28R
GRAND PRAIRIE  CLEAR     43  23  44 CALM      30.29S
ADDISON        CLEAR     46  23  41 CALM      30.28F
MESQUITE       CLEAR     35  24  63 CALM      30.28S
LANCASTER      CLEAR     43  19  38 CALM      30.28S
$$

TXZ091>094-102>105-117-120-121-131>134-111000-
NORTH CENTRAL TEXAS

CITY           SKY/WX    TMP DP  RH WIND       PRES   REMARKS
SHRMAN/DENISON CLEAR     39  20  45 SW6       30.27S WCI  35
GAINESVILLE    CLEAR     39  18  43 CALM      30.27F
BOWIE          CLEAR     51  16  25 W7        30.27S
BRIDGEPORT     CLEAR     45  18  34 SW7       30.30S
DECATUR        CLEAR     49  24  37 W8        30.26S
DENTON         CLEAR     34  22  61 CALM      30.26S
MCKINNEY       CLEAR     34  25  69 CALM      30.27R
BONHAM         CLEAR     44  19  36 W7        30.26R WCI  39
GREENVILLE     CLEAR     43  28  56 CALM      30.27S
ROCKWALL       CLEAR     46  25  43 CALM      30.28S
TERRELL        CLEAR     33  24  69 CALM      30.28S
WAXAHACHIE     CLEAR     50  23  34 W5        30.29S
CLEBURNE       CLEAR     48  19  32 NW6       30.30S
GRANBURY       CLEAR     35  24  62 CALM      30.31F
$$

TXZ083>090-098>101-113>116-127>130-139>142-154-155-111000-
WESTERN NORTH TEXAS

CITY           SKY/WX    TMP DP  RH WIND       PRES   REMARKS
WICHITA FALLS  CLEAR     40  17  39 W5        30.26F WCI  37
WF-KICKAPOO    CLEAR     43  19  37 W3        30.30S
VERNON         CLOUDY    34  12  39 W5        30.28S WCI  30
ABILENE        CLOUDY    42  18  37 SW6       30.32F WCI  38
ABILENE-DYESS  CLEAR     35  20  54 S7        30.32S WCI  29
GRAHAM           N/A     32  18  56 CALM      30.28F
BRECKENRIDGE   CLEAR     41  19  41 SW5       30.31S WCI  38
CISCO          CLEAR     46  16  29 W8        30.31F
EASTLAND       CLEAR     29  19  65 CALM      30.30F
RANGER           N/A     48  19  31 W7        30.30F
MINERAL WELLS  CLEAR     32  20  61 CALM      30.28S
STEPHENVILLE   CLEAR     45  18  34 CALM      30.32F
COMANCHE       CLEAR     52  21  29 W13       30.31S
COLEMAN        CLEAR     44  20  39 W7        30.33F WCI  39
$$

TXZ143>147-156>162-174-175-111000-
CENTRAL TEXAS

CITY           SKY/WX    TMP DP  RH WIND       PRES   REMARKS
WACO           CLEAR     35  29  78 CALM      30.30S
WACO-MCGREGOR  CLEAR     35  28  75 CALM      30.30F
HILLSBORO      CLEAR     40  25  56 CALM      30.29S
CORSICANA      CLEAR     40  29  64 SW9       30.30R WCI  34
MEXIA          CLEAR     43  28  56 SW3       30.29S
HEARNE         CLEAR     33  32  98 CALM      30.33S
CAMERON        CLEAR     43  34  71 SW5       30.31S
TEMPLE         CLEAR     39  29  67 CALM      30.31F
KILLEEN        CLEAR     56  23  27 S7        30.29F
KILLEEN-SKYLRK CLEAR     41  29  62 SW5       30.31F WCI  38
FORT HOOD      CLEAR     43  28  53 CALM      30.27S
GATESVILLE     CLEAR     36  25  64 CALM      30.32F
HAMILTON       CLEAR     45  21  38 W10       30.31S
LAMPASAS       CLEAR     46  25  43 W5        30.31S
$$

TXZ095>097-106>112-122>126-135>138-148>153-164>167-111000-
EAST TEXAS

CITY           SKY/WX    TMP DP  RH WIND       PRES   REMARKS
PARIS          CLEAR     43  22  43 W6        30.25S WCI  39
SULPHUR SPRNGS CLEAR     43  28  54 SW8       30.28S WCI  38
MOUNT PLEASANT CLEAR     38  30  74 SW3       30.27S
GILMER         CLEAR     46  29  53 CALM      30.27R
MINEOLA        CLEAR     37  32  81 CALM      30.27S
TYLER          CLEAR     43  29  57 SW3       30.28R
LONGVIEW       CLEAR     38  32  79 CALM      30.26S
MARSHALL       CLEAR     33  30  90 CALM      30.28S
ATHENS         CLEAR     30  27  86 CALM      30.28S
PALESTINE      CLEAR     35  32  88 CALM      30.31S
JACKSONVILLE   CLEAR     47  32  55 SW7       30.31R
HENDERSON      CLEAR     32  29  88 CALM      30.29R
CENTER         SUNNY     47  29  49 SW6       30.28S
NACOGDOCHES    CLEAR     33  31  92 CALM      30.31R
LUFKIN         PTCLDY    36  34  92 CALM      30.30F
$$

SUPPLEMENTAL OBSERVATIONS (NWS FORT WORTH AREA)

CITY           SKY/WX    TMP DP  RH WIND       PRES   REMARKS
DENISON DAM      N/A     52  23  32 W3          N/A
CADDO GRASSLND   N/A     37  25  60 CALM        N/A
PAT MAYSE LAKE   N/A     48  32  53 S3          N/A
LBJ GRASSLAND    N/A     46  21  36 SW1         N/A
POSSUM KINGDOM   N/A     48  18  29 SW7         N/A
GRANBURY         N/A     36  23  60 CALM        N/A
COMANCHE         N/A     52  18  25 W13         N/A
MCGREGOR         N/A     36  27  69 SW3         N/A
TEMPLE           N/A     45  28  53 W8          N/A
LAKE LIMESTONE   N/A     37  32  81 CALM        N/A
ATHENS           N/A     39  30  70 CALM        N/A
$$

SUPPLEMENTAL OBSERVATIONS (NWS NORMAN AREA)

CITY           SKY/WX    TMP DP  RH WIND       PRES   REMARKS
GOODLETT         N/A     36  13  38 W9        30.27F WCI  29
ODELL            N/A     29  17  59 W7        30.28F WCI  22
CROWELL          N/A     45  12  26 W6        30.29F
KNOX CITY        N/A     45  12  27 SW10      30.31S WCI  39
SEYMOUR          N/A     36  18  49 W6        30.29S WCI  31
MILLERS CREEK    N/A     36  23  60 S8          N/A  WCI  29
$$

SUPPLEMENTAL OBSERVATIONS (NWS SAN ANGELO AREA)

CITY           SKY/WX    TMP DP  RH WIND       PRES   REMARKS
WEINERT          N/A     43  15  31 W9        30.31S WCI  38
HASKELL          N/A     40  15  37 SW7       30.31F WCI  35
THROCKMORTON     N/A     46  21  36 SW10      30.30F
STAMFORD         N/A     34  17  51 SW8       30.33S WCI  27
CLYDE            N/A     49  17  28 SW5       30.33F
HAMBY            N/A     32  18  55 SE3         N/A
IVIE RESERVOIR   N/A     39  32  75 NW8         N/A  WCI  34
COLORADO BEND    N/A     37  23  56 CALM        N/A
$$

SUPPLEMENTAL OBSERVATIONS (NWS SHREVEPORT AREA)

CITY           SKY/WX    TMP DP  RH WIND       PRES   REMARKS
CLARKSVILLE      N/A     39  23  52 W1          N/A
TEXARKANA        N/A     32  28  86 CALM        N/A
LINDEN           N/A     45  28  53 W2          N/A
GILMER           N/A     43  30  61 SE1         N/A
HENDERSON        N/A     32  30  93 S1          N/A
LUFKIN           N/A     34  32  93 MISG        N/A
N SABINE NF      N/A     43  34  70 MISG        N/A
S SABINE NF      N/A     39  36  87 SE3         N/A
$$

SUPPLEMENTAL OBSERVATIONS ARE A COLLECTION OF AUTOMATED INSTRUMENTS
THAT ARE MAINTAINED BY A VARIETY OF FEDERAL AND STATE AGENCIES.
CERTAIN ELEMENTS...SUCH AS HUMIDITY VALUES AND SUSTAINED WIND
SPEEDS...MAY BE APPROXIMATED.




USA.gov is the U.S. government's official web portal to all federal, state and local government web resources and services.